TimeAKDT,TemperatureF,Dew PointF,Humidity,Sea Level PressureIn,VisibilityMPH,Wind Direction,Wind SpeedMPH,Gust SpeedMPH,PrecipitationIn,Events,Conditions,WindDirDegrees,DateUTC
12:53 AM,43.0,34.0,71,30.23,10.0,WSW,8.1,-,N/A,,Overcast,250,2013-05-07 08:53:00
1:53 AM,42.1,34.0,73,30.24,10.0,Calm,Calm,-,N/A,,Overcast,0,2013-05-07 09:53:00
2:53 AM,41.0,34.0,76,30.24,10.0,Calm,Calm,-,N/A,,Overcast,0,2013-05-07 10:53:00
3:53 AM,39.9,33.1,77,30.25,10.0,Calm,Calm,-,N/A,,Overcast,0,2013-05-07 11:53:00
4:53 AM,39.0,33.1,79,30.25,10.0,Calm,Calm,-,N/A,,Overcast,0,2013-05-07 12:53:00
5:53 AM,37.9,33.1,83,30.25,10.0,Calm,Calm,-,N/A,,Overcast,0,2013-05-07 13:53:00
6:53 AM,39.0,33.1,79,30.25,10.0,Calm,Calm,-,N/A,,Mostly Cloudy,0,2013-05-07 14:53:00
7:53 AM,39.9,35.1,83,30.24,10.0,Calm,Calm,-,N/A,,Partly Cloudy,0,2013-05-07 15:53:00
8:53 AM,43.0,36.0,76,30.24,10.0,Calm,Calm,-,N/A,,Clear,0,2013-05-07 16:53:00
9:53 AM,44.1,35.1,71,30.22,10.0,SW,3.5,-,N/A,,Clear,230,2013-05-07 17:53:00
10:53 AM,43.0,36.0,76,30.22,10.0,SW,3.5,-,N/A,,Clear,220,2013-05-07 18:53:00
11:53 AM,46.0,37.9,73,30.20,10.0,SSW,9.2,-,N/A,,Clear,210,2013-05-07 19:53:00
12:53 PM,46.9,37.0,68,30.20,10.0,SSW,12.7,-,N/A,,Clear,210,2013-05-07 20:53:00
1:53 PM,50.0,35.1,57,30.17,10.0,SSW,13.8,-,N/A,,Clear,200,2013-05-07 21:53:00
2:53 PM,53.1,34.0,48,30.16,10.0,SSW,13.8,-,N/A,,Clear,200,2013-05-07 22:53:00
3:53 PM,53.1,37.9,57,30.15,10.0,SSW,12.7,-,N/A,,Clear,210,2013-05-07 23:53:00
4:53 PM,54.0,37.0,53,30.14,10.0,SSW,12.7,-,N/A,,Clear,210,2013-05-08 00:53:00
5:53 PM,53.1,37.0,55,30.14,10.0,SW,9.2,-,N/A,,Clear,220,2013-05-08 01:53:00
6:53 PM,50.0,36.0,59,30.13,10.0,SW,5.8,-,N/A,,Clear,230,2013-05-08 02:53:00
7:53 PM,51.1,30.9,46,30.13,10.0,Calm,Calm,-,N/A,,Clear,0,2013-05-08 03:53:00
8:53 PM,48.0,32.0,54,30.15,10.0,Calm,Calm,-,N/A,,Clear,0,2013-05-08 04:53:00
9:53 PM,45.0,32.0,60,30.16,10.0,Calm,Calm,-,N/A,,Clear,0,2013-05-08 05:53:00
10:53 PM,42.1,30.9,65,30.17,10.0,Calm,Calm,-,N/A,,Clear,0,2013-05-08 06:53:00
11:53 PM,39.9,30.9,70,30.17,10.0,Calm,Calm,-,N/A,,Clear,0,2013-05-08 07:53:00